Tracking 29033 objects as of 22-Jun-2024
HD Live streaming from Space Station
objects crossing your sky now

STARLINK-3920

Track STARLINK-3920 now!
10-day predictions
STARLINK-3920 is classified as:


NORAD ID: 52575
Int'l Code: 2022-051AR
Perigee: 546.0 km
Apogee: 547.7 km
Inclination: 53.2 °
Period: 95.4 minutes
Semi major axis: 6917 km
RCS: Unknown
Launch date: May 13, 2022
Source: United States (US)
Launch site: AIR FORCE WESTERN TEST RANGE (AFWTR)
Your satellite tracking list
Your tracking list is empty




NASA's NSSDC Master Catalog

Two Line Element Set (TLE):
1 52575U 22051AR  24173.91528852  .00001218  00000-0  94568-4 0  9999
2 52575  53.2173  48.3331 0001246  94.4334 265.6801 15.08842315117182
Source of the keplerian elements: AFSPC